Assumption Island Airport

Jump to: basic info | weather | runways | comments

Related pages: nearby airports | nearby navaids | notams | map

Basic information (top)

Codes: FSAS
Location: lon -9.742220, lat 46.506802, elev 10 ft / 3 m msl
Status: small_airport

Weather (top)

Current conditions for Prince Said Ibrahim International Airport 219nm (406km) WSW (rec'd 2015/01/29 08:00Z):

FMCH 290800Z 31006KT 9999 FEW020 30/24 Q1012 NOSIG

Airport forecast for Prince Said Ibrahim International Airport 219nm (406km) WSW (rec'd 2015/01/29 06:00Z):

TAF FMCH 290500Z 2906/3012 35010KT 9999 FEW020 SCT030 PROB30 
      TEMPO 2910/2915 SHRA FEW020CB BKN030 
      BECMG 2916/2918 06004KT 
      BECMG 3004/3006 33012KT

Runways (top)

13/31: 3,963 x 75 ft (1,208 x 23 m) — paved — not lighted

Latest comments (top)

No comments yet for Assumption Island Airport

More... (top)

See also NOTAMs and nearby airports and navaids, or visit the Assumption Island Airport page at the main OurAirports website..